Quillayute, WA
on Saturday, November 24, 2012

Saturday
Previous Day Next Day
Daily Summary
 ActualAverageRecord
Temperature
Mean Temperature °F 43°F  
Max Temperature 50°F 49°F 60°F (2013)
Min Temperature 32°F 37°F 9°F (1985)
Degree Days
Heating Degree Days 24 22  
Month to date heating degree days 486  
Since 1 July heating degree days 1576  
Cooling Degree Days 0 0  
Month to date cooling degree days 0  
Year to date cooling degree days 19  
Moisture
Dew Point 39°F   
Average Humidity 96    
Maximum Humidity 100    
Minimum Humidity 80    
Precipitation
Precipitation 0.03 in 0.53 in 3.47 in (2004)
Month to date precipitation 12.38  
Year to date precipitation 83.41  
Wind
Wind Speed 2 mph   
Max Wind Speed 7 mph   
Max Gust Speed 10 mph   
Visibility 2 miles   
Events Fog , Rain   

Key: T is trace of precipitation, MM is missing value
Source: NWS Daily Summary
Time(PST)TemperatureDew PointHumidity Pressure Visibility Wind DirectionWind SpeedGust SpeedPrecipitationEvents Conditions
12:05 AM 37.4°F 37.4°F 100% 30.15 in 0.5 miles Calm Calm - N/A Fog Fog
12:28 AM 39.2°F 39.2°F 100% 30.16 in 1.0 miles Calm Calm - N/A   Overcast
12:32 AM 39.2°F 39.2°F 100% 30.16 in 2.5 miles Calm Calm - N/A   Overcast
12:53 AM 41.0°F 41.0°F 100% 30.16 in 3.0 miles SE 3.5 mph - N/A   Overcast
1:27 AM 39.2°F 37.4°F 93% 30.17 in 1.8 miles Calm Calm - N/A   Mostly Cloudy
1:37 AM 39.2°F 39.2°F 100% 30.17 in 3.0 miles Calm Calm - N/A   Mostly Cloudy
1:53 AM 39.0°F 39.0°F 100% 30.18 in 5.0 miles Calm Calm - N/A   Mostly Cloudy
2:53 AM 37.9°F 37.9°F 100% 30.19 in 3.0 miles ENE 4.6 mph - N/A   Scattered Clouds
3:32 AM 37.4°F 37.4°F 100% 30.19 in 2.5 miles Calm Calm - N/A   Mostly Cloudy
3:41 AM 39.2°F 39.2°F 100% 30.19 in 5.0 miles Calm Calm - N/A   Mostly Cloudy
3:53 AM 39.0°F 37.9°F 96% 30.19 in 4.0 miles Calm Calm - N/A   Overcast
4:20 AM 37.4°F 37.4°F 100% 30.19 in 1.5 miles Calm Calm - N/A   Overcast
4:31 AM 37.4°F 37.4°F 100% 30.19 in 3.0 miles Calm Calm - N/A   Overcast
4:45 AM 37.4°F 37.4°F 100% 30.20 in 2.0 miles Calm Calm - N/A   Mostly Cloudy
4:53 AM 39.0°F 37.9°F 96% 30.21 in 3.0 miles Calm Calm - N/A   Mostly Cloudy
5:26 AM 37.4°F 37.4°F 100% 30.21 in 2.0 miles East 3.5 mph - N/A   Clear
5:34 AM 37.4°F 37.4°F 100% 30.21 in 1.2 miles East 3.5 mph - N/A   Clear
5:43 AM 37.4°F 35.6°F 93% 30.21 in 0.5 miles Calm Calm - N/A Fog Fog
5:53 AM 36.0°F 36.0°F 100% 30.22 in 0.5 miles Calm Calm - N/A Fog Fog
6:09 AM 37.4°F 37.4°F 100% 30.22 in 1.0 miles Calm Calm - N/A   Overcast
6:19 AM 35.6°F 35.6°F 100% 30.22 in 0.8 miles Calm Calm - N/A   Mostly Cloudy
6:38 AM 35.6°F 35.6°F 100% 30.22 in 0.2 miles Calm Calm - N/A Fog Fog
6:53 AM 36.0°F 36.0°F 100% 30.22 in 0.5 miles Calm Calm - N/A Fog Fog
7:02 AM 35.6°F 35.6°F 100% 30.22 in 0.8 miles ENE 3.5 mph - N/A   Mostly Cloudy
7:15 AM 35.6°F 35.6°F 100% 30.22 in 1.0 miles Calm Calm - N/A   Scattered Clouds
7:27 AM 35.6°F 35.6°F 100% 30.22 in 2.0 miles East 3.5 mph - N/A   Partly Cloudy
7:36 AM 35.6°F 35.6°F 100% 30.23 in 5.0 miles ENE 5.8 mph - N/A   Clear
7:53 AM 37.9°F 37.9°F 100% 30.24 in 5.0 miles East 5.8 mph - N/A   Partly Cloudy
8:53 AM 41.0°F 39.9°F 96% 30.25 in 5.0 miles NE 4.6 mph - N/A   Clear
9:38 AM 44.6°F 42.8°F 93% 30.25 in 6.0 miles ENE 4.6 mph - N/A   Mostly Cloudy
9:53 AM 43.0°F 41.0°F 93% 30.26 in 6.0 miles Calm Calm - N/A   Overcast
10:40 AM 46.4°F 44.6°F 93% 30.26 in 6.0 miles North 4.6 mph - N/A   Mostly Cloudy
10:53 AM 46.9°F 44.1°F 90% 30.26 in 6.0 miles North 4.6 mph - N/A   Mostly Cloudy
11:18 AM 46.4°F 42.8°F 87% 30.26 in 6.0 miles NNW 4.6 mph - 0.00 in Rain Light Rain
11:27 AM 46.4°F 42.8°F 87% 30.25 in 1.8 miles Calm Calm - 0.00 in Rain Rain
11:35 AM 46.4°F 42.8°F 87% 30.25 in 1.0 miles ENE 4.6 mph - 0.01 in Rain Rain
11:42 AM 46.4°F 42.8°F 87% 30.25 in 2.0 miles ENE 3.5 mph - 0.02 in Rain Light Rain
11:44 AM 46.4°F 42.8°F 87% 30.25 in 3.0 miles ENE 4.6 mph - 0.02 in Rain Light Rain
11:53 AM 46.0°F 43.0°F 89% 30.25 in 6.0 miles ENE 3.5 mph - 0.02 in   Overcast
12:53 PM 46.9°F 42.1°F 83% 30.25 in 6.0 miles Calm Calm - N/A   Haze
1:53 PM 48.9°F 43.0°F 80% 30.25 in 6.0 miles Calm Calm - N/A   Haze
2:53 PM 48.9°F 43.0°F 80% 30.24 in 5.0 miles Calm Calm - N/A   Haze
3:13 PM 48.2°F 44.6°F 87% 30.24 in 1.8 miles Calm Calm - 0.00 in Rain Light Rain
3:28 PM 46.4°F 44.6°F 93% 30.24 in 3.0 miles Variable 4.6 mph - 0.01 in Rain Light Rain
3:41 PM 46.4°F 42.8°F 87% 30.24 in 5.0 miles North 3.5 mph - 0.01 in Rain Light Rain
3:53 PM 46.0°F 42.1°F 86% 30.25 in 5.0 miles Calm Calm - 0.01 in   Overcast
4:53 PM 43.0°F 42.1°F 97% 30.25 in 5.0 miles Calm Calm - N/A   Scattered Clouds
5:00 PM 42.8°F 41.0°F 93% 30.24 in 1.8 miles Calm Calm - N/A   Partly Cloudy
5:05 PM 42.8°F 41.0°F 93% 30.24 in 0.8 miles Calm Calm - N/A   Scattered Clouds
5:09 PM 41.0°F 41.0°F 100% 30.24 in 1.0 miles Calm Calm - N/A   Mist
5:11 PM 41.0°F 41.0°F 100% 30.24 in 1.5 miles Calm Calm - N/A   Partly Cloudy
5:16 PM 41.0°F 41.0°F 100% 30.24 in 1.0 miles Calm Calm - N/A   Mist
5:24 PM 39.2°F 39.2°F 100% 30.24 in 0.5 miles Calm Calm - N/A Fog Fog
5:39 PM 39.2°F 37.4°F 93% 30.24 in 0.5 miles Calm Calm - N/A Fog Fog
5:47 PM 37.4°F 37.4°F 100% 30.24 in 0.2 miles Calm Calm - N/A Fog Fog
5:53 PM 37.9°F 37.0°F 97% 30.25 in 0.2 miles Calm Calm - N/A Fog Fog
6:08 PM 37.4°F 37.4°F 100% 30.24 in 0.5 miles Calm Calm - N/A Fog Fog
6:15 PM 37.4°F 35.6°F 93% 30.24 in 0.2 miles Calm Calm - N/A Fog Fog
6:53 PM 37.9°F 37.9°F 100% 30.25 in 0.2 miles ENE 3.5 mph - N/A Fog Fog
7:17 PM 39.2°F 39.2°F 100% 30.26 in 0.2 miles Calm Calm - N/A Fog Fog
7:53 PM 37.0°F 37.0°F 100% 30.26 in 0.2 miles Calm Calm - N/A Fog Fog
8:03 PM 37.4°F 37.4°F 100% 30.26 in 0.2 miles Calm Calm - N/A Fog Fog
8:53 PM 36.0°F 36.0°F 100% 30.27 in 0.2 miles ENE 3.5 mph - N/A Fog Fog
9:37 PM 35.6°F 35.6°F 100% 30.27 in 0.5 miles East 5.8 mph - N/A Fog Fog
9:53 PM 36.0°F 35.1°F 97% 30.27 in 1.5 miles East 3.5 mph - N/A   Overcast
10:01 PM 35.6°F 35.6°F 100% 30.27 in 2.0 miles East 4.6 mph - N/A   Overcast
10:19 PM 35.6°F 35.6°F 100% 30.27 in 1.2 miles East 3.5 mph - N/A   Overcast
10:22 PM 33.8°F 33.8°F 100% 30.27 in 0.8 miles East 3.5 mph - N/A   Mist
10:46 PM 33.8°F 33.8°F 100% 30.28 in 0.2 miles Calm Calm - N/A Fog Fog
10:53 PM 33.1°F 33.1°F 100% 30.29 in 0.5 miles East 3.5 mph - N/A Fog Fog
10:58 PM 33.8°F 33.8°F 100% 30.28 in 1.5 miles East 4.6 mph - N/A   Mostly Cloudy
11:00 PM 33.8°F 33.8°F 100% 30.28 in 3.0 miles ENE 3.5 mph - N/A   Mostly Cloudy
11:09 PM 33.8°F 33.8°F 100% 30.28 in 6.0 miles East 3.5 mph - N/A   Scattered Clouds
11:53 PM 33.1°F 33.1°F 100% 30.29 in 7.0 miles East 3.5 mph - N/A   Clear
Moon Phase
Nov. 24 Nov. 28 Dec. 06 Dec. 13 Dec. 20
Sunrise:07:38 AM (PST) Moon Rise:02:30 PM (PST)
Sunset:04:31 PM (PST) Moon Set:03:48 AM (PST)

Copyright © 2014 The Weather Underground, Inc.